FW1198 Weather Reports


time (UTC)temp
C
wind
direction
speed
KPH
gust
KPH
rain 1hr
cm
rain 24hr
cm
rain mn
cm
humidity
%
barometer
mb
20230208163015 6 171 0.0 1.6 0.00 0.00 0.00 88 1029.1
20230208161507 5 171 0.0 1.6 0.00 0.00 0.00 90 1028.9
20230208160005 3 171 1.6 4.8 0.00 0.00 0.00 92 1028.7
20230208154505 3 169 1.6 3.2 0.00 0.00 0.00 92 1028.8
20230208153005 3 169 0.0 3.2 0.00 0.00 0.00 92 1028.8
20230208151504 2 169 1.6 3.2 0.00 0.00 0.00 92 1028.7
20230208150003 2 169 1.6 4.8 0.00 0.00 0.00 92 1028.6
20230208144501 2 164 1.6 4.8 0.00 0.00 0.00 91 1028.6
20230208143105 2 164 1.6 3.2 0.00 0.00 0.00 91 1028.4
20230208141603 2 164 1.6 4.8 0.00 0.00 0.00 92 1028.2
20230208140108 2 159 1.6 4.8 0.00 0.00 0.00 92 1028.1
20230208134559 2 199 1.6 3.2 0.00 0.00 0.00 91 1028.0
20230208133054 2 199 1.6 3.2 0.00 0.00 0.00 90 1027.8
20230208131552 2 199 0.0 0.0 0.00 0.00 0.00 90 1027.6
20230208130051 3 199 1.6 4.8 0.00 0.00 0.00 90 1027.4
20230208124550 2 176 1.6 0.0 0.00 0.00 0.00 91 1027.2
20230208123047 3 176 0.0 1.6 0.00 0.00 0.00 90 1027.1
20230208121545 3 176 0.0 3.2 0.00 0.00 0.00 90 1027.3
20230208120105 3 178 1.6 4.8 0.00 0.00 0.00 90 1027.4
20230208114547 3 206 0.0 3.2 0.00 0.00 0.00 90 1027.5
20230208113042 3 206 0.0 3.2 0.00 0.00 0.00 89 1027.5
20230208111541 3 178 0.0 4.8 0.00 0.00 0.00 90 1027.2
20230208110042 3 178 1.6 4.8 0.00 0.00 0.00 89 1027.2
20230208104548 3 178 0.0 4.8 0.00 0.00 0.00 88 1027.3
20230208103035 4 180 0.0 3.2 0.00 0.00 0.00 88 1027.4
20230208101536 4 180 3.2 4.8 0.00 0.00 0.00 88 1027.4
20230208100046 4 196 1.6 3.2 0.00 0.00 0.00 88 1027.7
20230208094528 4 185 1.6 4.8 0.00 0.00 0.00 87 1027.6
20230208093027 5 186 3.2 4.8 0.00 0.00 0.00 86 1027.7
20230208091526 5 196 1.6 4.8 0.00 0.00 0.00 86 1027.8
20230208090023 5 180 1.6 4.8 0.00 0.00 0.00 86 1027.8
20230208084520 5 180 1.6 4.8 0.00 0.00 0.00 85 1027.9
20230208083018 5 143 3.2 4.8 0.00 0.00 0.00 84 1028.0
20230208081537 5 161 1.6 4.8 0.00 0.00 0.00 85 1028.2
20230208080013 6 132 0.0 3.2 0.00 0.00 0.00 83 1028.3
20230208074515 6 132 0.0 0.0 0.00 0.00 0.00 81 1028.0
20230208073012 6 132 0.0 0.0 0.00 0.00 0.00 80 1027.9
20230208071512 6 130 0.0 3.2 0.00 0.00 0.00 79 1027.8
20230208070056 7 188 0.0 1.6 0.00 0.00 0.00 78 1027.7
20230208064608 7 188 0.0 4.8 0.00 0.00 0.00 77 1027.7
20230208063058 7 172 1.6 6.4 0.00 0.00 0.00 77 1027.8
20230208061600 7 190 1.6 4.8 0.00 0.00 0.00 76 1027.9
20230208060111 8 188 1.6 6.4 0.00 0.00 0.00 76 1027.9
20230208054555 8 199 3.2 6.4 0.00 0.00 0.00 76 1028.0
20230208053056 8 215 1.6 6.4 0.00 0.00 0.00 75 1028.0
20230208051558 8 204 3.2 6.4 0.00 0.00 0.00 76 1028.0
20230208050104 8 194 1.6 4.8 0.00 0.00 0.00 76 1028.0
20230208044552 8 190 1.6 3.2 0.00 0.00 0.00 75 1028.0
20230208043059 8 185 1.6 4.8 0.00 0.00 0.00 75 1028.0
20230208041606 9 185 3.2 4.8 0.00 0.00 0.00 74 1027.9
20230208040051 10 199 1.6 4.8 0.00 0.00 0.00 72 1027.8
20230208034558 10 221 0.0 3.2 0.00 0.00 0.00 70 1027.7
20230208033055 11 237 1.6 3.2 0.00 0.00 0.00 67 1027.6
20230208031553 11 289 1.6 4.8 0.00 0.00 0.00 65 1027.5
20230208030051 11 273 1.6 4.8 0.00 0.00 0.00 65 1027.3
20230208024547 12 232 1.6 3.2 0.00 0.00 0.00 63 1027.1
20230208023049 12 291 1.6 3.2 0.00 0.00 0.00 59 1026.9
20230208021557 13 345 0.0 3.2 0.00 0.00 0.00 56 1026.8
20230208020049 13 345 0.0 4.8 0.00 0.00 0.00 55 1026.8
20230208014544 13 325 3.2 9.7 0.00 0.00 0.00 54 1026.7
20230208013043 14 333 6.4 11.3 0.00 0.00 0.00 53 1026.6
20230208011542 15 334 3.2 9.7 0.00 0.00 0.00 53 1026.4
20230208010043 15 344 4.8 12.9 0.00 0.00 0.00 52 1026.2
20230208004544 15 308 8.0 12.9 0.00 0.00 0.00 51 1026.2
20230208003040 15 293 4.8 14.5 0.00 0.00 0.00 50 1026.3
20230208001541 16 315 8.0 14.5 0.00 0.00 0.00 49 1026.3
20230208000038 16 333 4.8 9.7 0.00 0.00 0.00 49 1026.4
20230207234536 16 299 6.4 11.3 0.00 0.00 0.00 48 1026.4
20230207233034 16 344 6.4 12.9 0.00 0.00 0.00 48 1026.7
20230207231536 15 344 6.4 12.9 0.00 0.00 0.00 49 1026.7
20230207230033 15 341 4.8 14.5 0.00 0.00 0.00 48 1026.8
20230207224530 15 280 4.8 12.9 0.00 0.00 0.00 49 1026.7
20230207223030 15 310 8.0 14.5 0.00 0.00 0.00 48 1026.8
20230207221528 15 280 4.8 14.5 0.00 0.00 0.00 49 1027.1
20230207220026 15 328 4.8 14.5 0.00 0.00 0.00 49 1027.2
20230207214525 15 306 4.8 11.3 0.00 0.00 0.00 48 1027.2
20230207213030 15 337 4.8 12.9 0.00 0.00 0.00 49 1027.4
20230207211523 15 351 3.2 9.7 0.00 0.00 0.00 49 1027.5
20230207210024 14 358 3.2 11.3 0.00 0.00 0.00 50 1027.7
20230207204522 15 318 8.0 14.5 0.00 0.00 0.00 48 1028.1
20230207203018 14 308 6.4 0.0 0.00 0.00 0.00 49 1028.3
20230207201518 14 334 11.3 16.1 0.00 0.00 0.00 50 1028.5
20230207200017 13 9 6.4 12.9 0.00 0.00 0.00 51 1028.7
20230207194514 13 332 4.8 12.9 0.00 0.00 0.00 52 1028.8
20230207193012 13 340 8.0 12.9 0.00 0.00 0.00 52 1029.1
20230207191509 13 338 6.4 12.9 0.00 0.00 0.00 55 1029.1
20230207190007 12 282 4.8 9.7 0.00 0.00 0.00 56 1029.2
20230207184505 12 5 0.0 9.7 0.00 0.00 0.00 59 1029.3
20230207183101 11 285 3.2 6.4 0.00 0.00 0.00 60 1029.3
20230207181557 11 271 4.8 8.0 0.00 0.00 0.00 61 1029.3
20230207180103 11 360 3.2 6.4 0.00 0.00 0.00 64 1029.2
20230207174553 10 313 0.0 4.8 0.00 0.00 0.00 66 1029.4
20230207173100 9 149 0.0 4.8 0.00 0.00 0.00 70 1029.4
20230207171544 8 88 1.6 6.4 0.00 0.00 0.00 71 1029.2
20230207170047 8 81 1.6 6.4 0.00 0.00 0.00 74 1029.4
20230207164550 7 125 1.6 8.0 0.00 0.00 0.00 75 1029.5